Preview of NWS' New Version of Forecast
This preview is not operational and should not be used for support decisions.

Regional Weather Roundup (RWR)

Issued by National Weather Service (NWS)

                            
000
ASUS44 KMEG 221310
RWRTN 
TENNESSEE HOURLY STATE WEATHER ROUNDUP
NATIONAL WEATHER SERVICE MEMPHIS TN
800 AM CDT MON JUL 22 2019

TNZ002-004-019-021-049-052-054-088>092-221400-
WEST TENNESSEE
  
CITY           SKY/WX    TMP DP  RH WIND       PRES   REMARKS
MEMPHIS INTL   PTSUNNY   78  75  90 SW7       29.96R                  
NWS MEMPHIS      N/A     78 N/A N/A MISG        N/A                   
JACKSON        CLOUDY    77  75  93 S8        29.96S                  
DYERSBURG      PTSUNNY   79  77  94 SW6       29.95R                  
SOMERVILLE     CLOUDY    77  75  94 S9        29.95S                  
COVINGTON      PTSUNNY   79  77  94 SW9       29.94R                  
UNION CITY     PTSUNNY   79  77  94 S7        29.92S                  
BOLIVAR        CLOUDY    77  75  94 S6        29.96R FOG              
PARIS          CLOUDY    77  75  94 S6        29.95R                  
HUNTINGDON     PTSUNNY   77  75  94 S8        29.94S                  
LEXINGTON      CLOUDY    77  75  94 S7        29.96S                  
SELMER         PTSUNNY   77  75  94 S5        29.97R                  
SAVANNAH       PTSUNNY   79  75  89 S6        29.97R                  
$$

TNZ008-025-027-028-033-062-065-066-221400-
NORTH MIDDLE TENNESSEE
  
CITY           SKY/WX    TMP DP  RH WIND       PRES   REMARKS
NASHVILLE      CLOUDY    79  73  82 S7        29.97S                  
PORTLAND       CLOUDY    77  75  94 SW8       29.96R                  
CLARKSVILLE    PTSUNNY   77  76  96 SW9       29.94S                  
LEBANON        SUNNY     77  73  88 MISG      29.95S                  
SMYRNA         FAIR      77  74  90 S3        29.99R                  
MURFREESBORO   CLOUDY    77  73  88 S7        29.97S                  
LIVINGSTON     CLOUDY    73  72  94 VRB7G14   30.00R FOG              
GALLATIN       CLOUDY    77  75  94 S3        29.99R                  
CROSSVILLE     CLOUDY    73  69  87 VRB3      30.05R                  
ROCKWOOD       PTSUNNY   73  72  94 S5        30.03R                  
$$

TNZ061-075-076-078-094-096-097-221400-
SOUTH MIDDLE TENNESSEE
  
CITY           SKY/WX    TMP DP  RH WIND       PRES   REMARKS
LAWRENCEBURG   CLOUDY    75  73  94 VRB3      30.01R                  
LEWISBURG      PTSUNNY   77  73  88 SW7       29.99R                  
FAYETTEVILLE   CLOUDY    75  75 100 SW8       30.01S                  
TULLAHOMA      CLOUDY    75  73  94 VRB6G13   30.00S                  
WINCHESTER     MOSUNNY   77  73  88 S5        30.02R                  
MCMINNVILLE    MOSUNNY   75  73  94 SW6       30.01R                  
COLUMBIA       CLOUDY    75  75 100 SW9       29.97R FOG              
SHELBYVILLE    MOSUNNY   77  73  88 S7        29.99S                  
$$

TNZ017-018-042-046-047-221400-
NORTHEAST TENNESSEE
  
CITY           SKY/WX    TMP DP  RH WIND       PRES   REMARKS
TRI CITIES     CLOUDY    73  70  90 CALM      30.04R                  
ELIZABETHTON   CLOUDY    72  72 100 CALM      30.04S                  
GREENEVILLE    CLOUDY    73  70  88 CALM      30.03S                  
$$

TNZ012-013-036-069-073-074-221400-
CENTRAL EAST TENNESSEE
  
CITY           SKY/WX    TMP DP  RH WIND       PRES   REMARKS
KNOXVILLE      CLOUDY    77  70  79 SW12      30.00S                  
OAK RIDGE      PTSUNNY   78  71  79 VRB5      30.01S                  
DOWNTOWN KNOXV PTSUNNY   77  75  94 W5        30.00S                  
GATLINBURG     PTSUNNY   75  72  88 SW8       30.01R FOG              
MORRISTOWN     CLOUDY    75  73  94 VRB6      30.01S                  
JACKSBORO      PTSUNNY   73  73 100 CALM      30.04R                  
$$

TNZ083-085-099-221400-
SOUTHEAST TENNESSEE
  
CITY           SKY/WX    TMP DP  RH WIND       PRES   REMARKS
CHATTANOOGA    PTSUNNY   77  73  87 S6        30.02S                  
DAYTON         CLOUDY    77  73  88 SW5       30.00S                  
$$

SKY/WX REPORTED AS FAIR MEANS FEW OR NO CLOUDS BELOW
12 THOUSAND FEET.